TimeCDT,TemperatureF,Dew PointF,Humidity,Sea Level PressureIn,VisibilityMPH,Wind Direction,Wind SpeedMPH,Gust SpeedMPH,PrecipitationIn,Events,Conditions,WindDirDegrees,DateUTC
12:15 AM,50.0,41.0,71,30.22,10.0,North,3.5,-,N/A,,Light Drizzle,350,2012-10-08 05:15:00
12:35 AM,50.0,41.0,71,30.21,10.0,Calm,Calm,-,N/A,,Overcast,0,2012-10-08 05:35:00
12:55 AM,50.0,41.0,71,30.21,10.0,Calm,Calm,-,N/A,,Overcast,0,2012-10-08 05:55:00
1:15 AM,50.0,42.8,76,30.22,10.0,Calm,Calm,-,N/A,,Overcast,0,2012-10-08 06:15:00
1:35 AM,50.0,41.0,71,30.22,10.0,NE,4.6,-,N/A,,Overcast,50,2012-10-08 06:35:00
1:55 AM,50.0,41.0,71,30.23,10.0,North,4.6,-,N/A,,Overcast,10,2012-10-08 06:55:00
2:15 AM,50.0,41.0,71,30.23,10.0,North,3.5,-,N/A,,Overcast,360,2012-10-08 07:15:00
2:35 AM,50.0,41.0,71,30.22,10.0,Calm,Calm,-,N/A,,Overcast,0,2012-10-08 07:35:00
3:15 AM,48.2,42.8,82,30.22,10.0,Calm,Calm,-,N/A,,Overcast,0,2012-10-08 08:15:00
3:35 AM,48.2,41.0,76,30.21,10.0,Calm,Calm,-,N/A,,Overcast,0,2012-10-08 08:35:00
3:55 AM,48.2,41.0,76,30.21,10.0,Calm,Calm,-,N/A,,Overcast,0,2012-10-08 08:55:00
4:15 AM,48.2,41.0,76,30.21,10.0,Calm,Calm,-,N/A,,Overcast,0,2012-10-08 09:15:00
4:35 AM,48.2,41.0,76,30.21,10.0,Calm,Calm,-,N/A,,Overcast,0,2012-10-08 09:35:00
4:55 AM,46.4,42.8,87,30.21,10.0,Calm,Calm,-,N/A,,Overcast,0,2012-10-08 09:55:00
5:15 AM,46.4,42.8,87,30.21,10.0,Calm,Calm,-,N/A,,Mostly Cloudy,0,2012-10-08 10:15:00
5:35 AM,44.6,42.8,93,30.21,10.0,Calm,Calm,-,N/A,,Scattered Clouds,0,2012-10-08 10:35:00
5:55 AM,42.8,41.0,93,30.22,10.0,Calm,Calm,-,N/A,,Clear,0,2012-10-08 10:55:00
6:15 AM,41.0,41.0,100,30.23,10.0,Calm,Calm,-,N/A,,Clear,0,2012-10-08 11:15:00
6:35 AM,41.0,41.0,100,30.23,10.0,Calm,Calm,-,N/A,,Clear,0,2012-10-08 11:35:00
6:55 AM,41.0,41.0,100,30.23,10.0,Calm,Calm,-,N/A,,Clear,0,2012-10-08 11:55:00
7:15 AM,41.0,41.0,100,30.23,10.0,Calm,Calm,-,N/A,,Clear,0,2012-10-08 12:15:00
7:35 AM,39.2,39.2,100,30.23,10.0,Calm,Calm,-,N/A,,Clear,0,2012-10-08 12:35:00
8:15 AM,41.0,41.0,100,30.24,10.0,Calm,Calm,-,N/A,,Clear,0,2012-10-08 13:15:00
8:55 AM,44.6,44.6,100,30.25,10.0,Calm,Calm,-,N/A,,Clear,0,2012-10-08 13:55:00
9:15 AM,46.4,44.6,93,30.26,10.0,Calm,Calm,-,N/A,,Clear,0,2012-10-08 14:15:00
9:35 AM,50.0,44.6,82,30.26,10.0,Calm,Calm,-,N/A,,Clear,0,2012-10-08 14:35:00
9:55 AM,51.8,41.0,67,30.26,10.0,Calm,Calm,-,N/A,,Clear,0,2012-10-08 14:55:00
10:15 AM,51.8,41.0,67,30.26,10.0,Calm,Calm,-,N/A,,Clear,0,2012-10-08 15:15:00
10:35 AM,55.4,42.8,63,30.25,10.0,East,3.5,-,N/A,,Clear,90,2012-10-08 15:35:00
10:55 AM,55.4,41.0,58,30.25,10.0,Calm,Calm,-,N/A,,Clear,0,2012-10-08 15:55:00
11:15 AM,59.0,41.0,51,30.24,10.0,WSW,3.5,-,N/A,,Mostly Cloudy,240,2012-10-08 16:15:00
11:35 AM,55.4,37.4,51,30.24,10.0,SW,3.5,-,N/A,,Mostly Cloudy,230,2012-10-08 16:35:00
12:15 PM,55.4,37.4,51,30.23,10.0,Calm,Calm,-,N/A,,Scattered Clouds,0,2012-10-08 17:15:00
12:35 PM,59.0,37.4,45,30.23,10.0,West,4.6,-,N/A,,Scattered Clouds,280,2012-10-08 17:35:00
12:55 PM,59.0,39.2,48,30.21,10.0,Calm,Calm,-,N/A,,Mostly Cloudy,0,2012-10-08 17:55:00
1:15 PM,60.8,37.4,42,30.21,10.0,NE,3.5,-,N/A,,Mostly Cloudy,50,2012-10-08 18:15:00
1:35 PM,60.8,37.4,42,30.19,10.0,West,3.5,-,N/A,,Scattered Clouds,270,2012-10-08 18:35:00
1:55 PM,60.8,35.6,39,30.18,10.0,Calm,Calm,-,N/A,,Scattered Clouds,0,2012-10-08 18:55:00
2:15 PM,62.6,37.4,39,30.18,10.0,NW,4.6,-,N/A,,Clear,310,2012-10-08 19:15:00
2:35 PM,62.6,35.6,37,30.16,10.0,Calm,Calm,-,N/A,,Clear,0,2012-10-08 19:35:00
2:55 PM,62.6,35.6,37,30.16,10.0,Calm,Calm,-,N/A,,Clear,0,2012-10-08 19:55:00
3:15 PM,62.6,37.4,39,30.15,10.0,South,4.6,-,N/A,,Scattered Clouds,190,2012-10-08 20:15:00
3:35 PM,64.4,37.4,37,30.15,10.0,Calm,Calm,-,N/A,,Scattered Clouds,0,2012-10-08 20:35:00
3:55 PM,62.6,37.4,39,30.14,10.0,Calm,Calm,-,N/A,,Mostly Cloudy,0,2012-10-08 20:55:00
4:15 PM,64.4,37.4,37,30.13,10.0,ESE,3.5,-,N/A,,Scattered Clouds,110,2012-10-08 21:15:00
4:35 PM,64.4,37.4,37,30.13,10.0,Calm,Calm,-,N/A,,Scattered Clouds,0,2012-10-08 21:35:00
4:55 PM,64.4,37.4,37,30.12,10.0,Calm,Calm,-,N/A,,Scattered Clouds,0,2012-10-08 21:55:00
5:15 PM,64.4,37.4,37,30.12,10.0,SW,3.5,-,N/A,,Clear,230,2012-10-08 22:15:00
5:55 PM,62.6,37.4,39,30.11,10.0,South,3.5,-,N/A,,Clear,180,2012-10-08 22:55:00
6:15 PM,62.6,39.2,42,30.12,10.0,SSW,3.5,-,N/A,,Clear,200,2012-10-08 23:15:00
6:35 PM,60.8,41.0,48,30.11,10.0,Calm,Calm,-,N/A,,Clear,0,2012-10-08 23:35:00
6:55 PM,57.2,41.0,55,30.11,10.0,Calm,Calm,-,N/A,,Clear,0,2012-10-08 23:55:00
7:15 PM,55.4,42.8,63,30.11,10.0,Calm,Calm,-,N/A,,Clear,0,2012-10-09 00:15:00
7:35 PM,53.6,42.8,67,30.10,10.0,Calm,Calm,-,N/A,,Clear,0,2012-10-09 00:35:00
8:15 PM,50.0,44.6,82,30.11,10.0,Calm,Calm,-,N/A,,Clear,0,2012-10-09 01:15:00
8:35 PM,50.0,44.6,82,30.11,10.0,Calm,Calm,-,N/A,,Clear,0,2012-10-09 01:35:00
8:55 PM,48.2,44.6,87,30.11,10.0,Calm,Calm,-,N/A,,Clear,0,2012-10-09 01:55:00
9:15 PM,48.2,42.8,82,30.12,10.0,Calm,Calm,-,N/A,,Clear,0,2012-10-09 02:15:00
9:35 PM,46.4,42.8,87,30.12,10.0,Calm,Calm,-,N/A,,Clear,0,2012-10-09 02:35:00
9:55 PM,48.2,42.8,82,30.12,10.0,Calm,Calm,-,N/A,,Clear,0,2012-10-09 02:55:00
10:15 PM,48.2,42.8,82,30.12,10.0,Calm,Calm,-,N/A,,Clear,0,2012-10-09 03:15:00
10:35 PM,46.4,42.8,87,30.12,10.0,Calm,Calm,-,N/A,,Clear,0,2012-10-09 03:35:00
10:55 PM,46.4,42.8,87,30.12,10.0,Calm,Calm,-,N/A,,Clear,0,2012-10-09 03:55:00
11:15 PM,46.4,42.8,87,30.12,10.0,Calm,Calm,-,N/A,,Clear,0,2012-10-09 04:15:00
11:35 PM,50.0,42.8,76,30.12,10.0,Calm,Calm,-,N/A,,Clear,0,2012-10-09 04:35:00